Location: Rounton
(54.4000°N, 1.3500°W)
Time: 03:59:15
(UTC+00:00)

S-56A Canister/Altair - Pass Details

Date: 02 December 2021
Orbit: 633 x 2499 km, 38.9° (Epoch: 17 January)

Event Time Altitude Azimuth Distance (km) Brightness Sun altitude
Rises 02:18:00 0° 238° (WSW) 4,324 - -47.9°
Reaches altitude 10° 02:22:16 10° 222° (SW) 2,986 - -47.4°
Maximum altitude 02:26:44 18° 181° (S) 2,096 - -46.9°
Drops below altitude 10° 02:30:23 10° 139° (SE) 2,361 - -46.4°
Sets 02:33:15 0° 120° (ESE) 3,117 - -46.1°
